sat.trackr.live / text

‹ back to catalog

STARLINK-34085

NORAD 64036 · 2025-102Q

PAYLOAD ACTIVE UNKNOWN

§ Identity

Operator
Country
US
Launch date
2025-05-16
Launch site
AFWTR
Launch vehicle
Mass (kg)
RCS (m²)

Purposes: comms

External: N2YO · Heavens-Above · Gunter

§ Orbital elements

Epoch: 2026-09-20T13:57:04.960224Z

Period
94.09 min
Inclination
70.0011°
Eccentricity
0.0003130
Mean motion
15.30423232 rev/d
Perigee alt
472.4 km
Apogee alt
476.7 km
Semi-major
6,852.7 km
B*
2.0562e-4
RAAN
340.7213°
Arg perigee
269.1675°
Mean anomaly
90.9142°
Rev number
7,520

§ Raw data

STARLINK-340851 64036U 25102Q   26263.58130741  .00005942  00000+0  20562-3 0  99942 64036  70.0011 340.7213 0003130 269.1675  90.9142 15.30423232 75207

JSON: /api/v1/satellites/64036 · /tle

For live sub-satellite position, see the globe view (requires WebGL).

§ Visibility from observer

Set your observer location to see the next 7 days of passes ≥ 10°. The values pass through the URL so the page stays shareable.

No JS? Fill the form by hand. The geolocation button needs JavaScript.